Location: *
(49.5667°N, 1.3667°W)
Time: 23:37:04
(UTC+00:00)

SL-16 R/B - Pass Details

Date: 20 September 2019
Orbit: 840 x 849 km, 71.0° (Epoch: 20 October)

Event Time Altitude Azimuth Distance (km) Brightness Sun altitude
Rises 21:26:32 0° 323° (NW) 3,417 6.5 -29.9°
Reaches altitude 10° 21:29:18 10° 312° (NW) 2,478 5.5 -30.2°
Maximum altitude 21:34:00 27° 256° (WSW) 1,566 3.8 -30.7°
Enters shadow 21:35:03 26° 238° (WSW) 1,623 3.7 -30.8°
